Date,TemperatureHighF,TemperatureAvgF,TemperatureLowF,DewpointHighF,DewpointAvgF,DewpointLowF,HumidityHigh,HumidityAvg,HumidityLow,PressureMaxIn,PressureMinIn,WindSpeedMaxMPH,WindSpeedAvgMPH,GustSpeedMaxMPH,PrecipitationSumIn
2013-1-1,16.7,9.7,3.3,7.0,4.9,2.1,96,81,62,30.22,30.11,6,1,13,0.00
2013-1-2,23.2,18.6,12.4,18.2,11.9,6.5,88,75,56,30.13,30.02,8,1,20,0.00
2013-1-3,28.1,21.5,10.7,20.9,17.2,7.7,88,83,72,30.21,30.02,10,3,17,0.00
2013-1-4,29.7,20.5,10.1,18.7,14.7,7.5,94,79,62,30.18,30.06,11,4,19,0.00
2013-1-5,35.7,27.0,14.2,31.3,22.6,12.9,97,84,70,30.18,29.84,9,2,19,0.00
2013-1-6,33.9,24.4,15.3,27.1,18.7,12.8,89,79,69,30.26,29.85,11,2,19,0.00
2013-1-7,36.2,27.0,14.9,24.5,19.3,12.3,90,73,56,30.25,30.00,14,3,24,0.00
2013-1-8,38.1,32.6,22.1,30.1,26.0,20.4,94,77,66,30.07,29.90,9,2,20,0.00
2013-1-9,40.9,34.4,26.0,30.0,25.0,21.1,82,69,52,30.44,29.90,16,5,34,0.00
2013-1-10,40.1,31.9,21.4,34.9,26.3,19.2,94,81,60,30.46,29.84,6,1,14,0.38
2013-1-11,46.3,40.3,35.5,44.6,39.0,34.1,97,95,88,29.84,29.57,8,2,17,0.02
2013-1-12,46.6,33.6,21.8,42.7,26.1,15.1,89,74,60,30.01,29.58,13,4,27,0.00
2013-1-13,22.7,17.8,13.2,16.3,10.8,6.7,79,74,65,30.18,29.88,9,3,19,0.00
2013-1-14,26.3,17.0,9.2,12.7,9.3,6.2,89,72,50,30.41,30.18,7,2,16,0.00
2013-1-15,29.5,21.4,14.9,15.0,12.9,11.1,87,70,49,30.38,30.04,8,2,14,0.00
2013-1-16,35.9,27.6,18.7,29.5,19.6,11.0,79,72,59,30.05,29.75,12,4,22,0.00
2013-1-17,28.9,21.9,15.8,19.2,10.8,4.9,87,63,45,30.37,30.05,9,2,17,0.00
2013-1-18,42.5,31.6,15.7,31.2,23.1,11.9,88,71,60,30.38,29.80,15,4,25,0.00
2013-1-19,45.9,37.0,15.4,32.7,26.2,5.3,77,65,42,29.97,29.64,15,5,32,0.00
2013-1-20,16.7,12.0,7.5,5.9,2.4,0.9,76,65,51,30.29,29.97,11,3,26,0.00
2013-1-21,11.9,4.2,-1.0,3.9,-2.5,-6.9,93,73,60,30.25,30.10,11,4,20,0.00
2013-1-22,9.6,3.3,-3.9,1.5,-3.6,-7.4,90,73,59,30.33,30.23,8,2,16,0.00
2013-1-23,20.0,13.2,4.5,15.7,6.6,-2.1,89,75,63,30.40,30.05,12,4,25,0.00
2013-1-24,17.5,8.5,0.8,10.9,1.6,-3.4,84,73,58,30.62,30.28,9,2,16,0.00
2013-1-25,27.3,20.4,14.3,18.8,13.1,7.2,88,73,58,30.29,29.90,10,3,22,0.00
2013-1-26,25.0,18.3,9.0,14.5,9.1,6.3,90,68,50,30.37,30.18,5,1,11,0.00
2013-1-27,34.6,29.0,22.7,32.8,22.4,13.3,93,77,62,30.29,29.81,9,2,20,0.03
2013-1-28,41.2,36.7,34.2,35.9,33.1,30.8,95,87,73,29.92,29.73,7,1,13,0.14
2013-1-29,53.9,42.8,34.6,52.7,41.6,33.4,98,96,92,29.75,29.48,7,2,13,1.92
2013-1-30,35.0,27.3,15.8,33.7,25.7,13.2,97,93,89,29.61,29.32,8,3,19,0.15
2013-1-31,16.4,10.4,1.2,13.7,7.4,-0.2,94,87,75,30.12,29.61,9,3,19,0.00
2013-2-1,7.5,1.5,-5.7,5.9,-1.6,-7.0,95,87,72,30.29,30.07,7,2,16,0.00
2013-2-2,12.8,9.4,6.7,8.7,6.4,4.1,98,88,75,30.08,29.97,8,2,14,0.00
2013-2-3,21.7,15.6,9.6,15.5,11.1,7.6,93,83,64,30.01,29.89,10,2,17,0.00
2013-2-4,18.3,15.3,11.6,16.2,11.7,8.5,94,86,70,29.96,29.89,8,1,14,0.00
2013-2-5,30.5,21.5,10.0,23.6,16.7,6.2,92,82,73,30.08,29.74,8,2,16,0.00
2013-2-6,34.3,23.2,7.8,29.0,17.8,7.0,98,81,59,30.18,30.02,7,1,14,0.00
2013-2-7,35.9,31.6,22.4,33.4,29.5,21.3,98,92,83,30.07,29.90,9,2,17,0.29
2013-2-8,25.4,21.2,13.3,21.0,17.5,12.2,96,86,72,30.35,30.07,10,3,20,0.00
2013-2-9,29.9,23.9,11.9,24.8,20.9,10.7,99,89,77,30.36,30.03,9,2,17,0.00
2013-2-10,42.2,34.1,21.1,41.0,32.2,19.5,97,93,81,30.03,29.37,11,3,25,1.02
2013-2-11,37.3,30.4,24.8,32.3,23.8,18.5,86,76,67,29.99,29.37,17,7,32,0.27
2013-2-12,32.0,25.7,21.7,22.2,18.8,15.7,86,75,63,30.07,29.84,8,2,19,0.00
2013-2-13,38.7,31.4,20.3,29.5,24.6,18.8,94,77,58,29.84,29.64,7,1,13,0.00
2013-2-14,36.7,34.1,28.1,33.0,25.9,19.8,88,72,56,29.99,29.54,12,3,22,0.03
2013-2-15,27.8,20.8,12.7,20.9,9.9,5.4,82,63,43,30.19,29.99,9,3,17,0.00
2013-2-16,18.6,12.7,7.2,8.5,4.9,2.1,89,71,52,30.18,30.11,8,2,17,0.00
2013-2-17,27.6,17.5,3.8,19.1,9.2,1.8,94,71,49,30.16,29.87,8,2,17,0.00
2013-2-18,46.7,34.3,22.3,37.8,27.0,18.1,93,75,61,29.86,29.46,11,3,22,0.14
2013-2-19,22.0,13.5,8.5,18.3,8.3,1.4,94,79,69,30.18,29.56,11,5,25,0.00
2013-2-20,24.7,15.0,5.5,12.4,7.1,1.0,83,71,55,30.35,30.17,8,2,14,0.00
2013-2-21,26.3,19.6,11.7,23.6,15.7,8.2,95,85,73,30.40,29.99,6,1,22,0.00
2013-2-22,32.4,28.1,24.4,24.9,23.7,21.9,95,84,73,29.99,29.76,4,1,14,0.00
2013-2-23,32.5,26.7,23.2,22.3,19.4,17.3,85,74,60,29.92,29.82,9,4,17,0.00
2013-2-24,39.7,28.1,17.7,22.9,19.3,15.7,93,71,49,30.11,29.92,5,1,13,0.00
2013-2-25,42.2,30.7,19.5,26.6,22.5,17.2,91,73,54,30.14,30.00,6,0,15,0.00
2013-2-26,34.6,31.2,28.4,28.5,25.5,23.1,97,80,68,30.00,29.64,15,3,31,0.00
2013-2-27,32.9,30.7,28.2,30.4,28.4,26.0,97,91,84,29.78,29.62,12,4,21,0.01
2013-2-28,34.9,31.3,24.7,29.3,24.9,18.7,90,77,65,30.12,29.78,9,4,22,0.00
2013-3-1,27.9,23.0,13.3,20.5,17.7,12.0,95,80,63,30.23,30.11,10,2,20,0.00
2013-3-2,28.5,18.0,9.5,14.8,11.6,8.2,97,77,49,30.23,30.14,7,1,14,0.00
2013-3-3,29.7,19.1,7.9,13.0,10.6,6.6,94,71,42,30.14,30.05,6,1,9,0.00
2013-3-4,34.9,25.5,15.6,23.0,17.3,10.1,84,71,57,30.10,29.98,6,1,14,0.00
2013-3-5,30.7,28.5,25.5,27.7,25.1,22.3,95,87,77,30.09,29.87,11,2,20,0.00
2013-3-6,34.0,28.9,24.7,24.4,22.2,19.8,86,76,67,30.30,30.08,8,3,16,0.00
2013-3-7,36.2,25.8,13.2,21.8,18.4,12.2,96,75,53,30.39,30.29,5,0,10,0.00
2013-3-8,39.4,28.8,16.8,25.9,21.9,15.2,98,77,57,30.42,30.23,8,1,17,0.00
2013-3-9,41.3,36.1,30.6,36.8,30.3,22.9,94,80,65,30.24,29.76,9,2,20,0.64
2013-3-10,41.0,38.0,34.6,39.8,36.8,33.4,97,95,93,29.79,29.62,6,1,14,0.81
2013-3-11,35.4,33.1,30.3,33.5,30.3,23.5,96,90,76,29.76,29.55,7,2,19,0.01
2013-3-12,35.2,29.0,25.0,26.6,22.6,17.5,89,77,60,30.01,29.76,8,3,17,0.00
2013-3-13,34.4,26.1,19.0,19.5,11.9,3.2,83,58,28,30.29,30.01,10,3,19,0.00
2013-3-14,37.2,27.7,17.8,27.0,20.0,12.5,86,73,50,30.29,30.03,8,1,16,0.00
2013-3-15,36.4,32.8,29.4,33.3,29.2,25.3,92,87,76,30.03,29.78,4,0,13,0.34
2013-3-16,31.6,27.2,21.8,25.5,20.7,17.8,95,77,62,30.12,29.78,9,2,17,0.00
2013-3-17,34.0,25.5,17.6,19.3,15.4,10.0,78,65,52,30.23,29.97,8,2,16,0.00
2013-3-18,34.9,26.9,17.4,29.8,22.2,12.1,91,82,73,29.97,29.56,12,2,29,0.00
2013-3-19,32.2,20.9,11.7,13.4,10.1,7.7,86,65,36,30.04,29.71,13,6,31,0.00
2013-3-20,24.0,16.2,9.0,8.4,5.6,1.5,73,63,49,30.07,30.00,10,4,22,0.00
2013-3-21,32.8,20.7,10.8,14.3,9.1,4.9,79,62,37,30.04,29.97,8,2,14,0.00
2013-3-22,35.6,25.5,13.6,17.5,13.8,9.9,86,62,43,30.05,30.00,6,1,11,0.00
2013-3-23,39.5,30.5,20.8,21.0,18.5,15.5,86,62,43,30.12,30.03,6,1,10,0.00
2013-3-24,32.9,30.3,29.2,27.7,23.8,20.7,90,77,67,30.05,29.78,11,3,22,0.00
2013-3-25,35.5,31.2,25.7,24.1,21.5,18.3,78,67,60,30.08,29.82,10,4,19,0.00
2013-3-26,41.5,35.7,31.0,26.1,22.6,20.3,68,59,50,30.25,30.08,8,2,16,0.00
2013-3-27,44.1,36.7,28.9,24.5,21.4,16.7,74,55,37,30.31,30.24,6,1,11,0.00
2013-3-28,47.2,36.4,25.7,25.6,20.3,16.2,77,54,32,30.34,30.26,7,1,11,0.00
2013-3-29,50.3,38.9,26.9,25.5,22.1,17.1,82,54,28,30.31,30.20,6,1,13,0.00
2013-3-30,53.3,43.9,35.3,41.5,32.0,22.6,90,63,51,30.20,29.81,11,2,19,0.03
2013-3-31,49.8,40.6,32.5,41.6,31.5,17.2,92,71,51,29.92,29.73,9,3,22,0.00
2013-4-1,38.1,31.3,25.9,17.7,13.1,8.4,59,47,33,30.18,29.92,10,4,19,0.00
2013-4-2,39.4,29.7,25.0,16.6,14.5,10.9,68,54,32,30.31,30.18,7,1,16,0.00
2013-4-3,45.9,35.2,23.1,20.6,15.7,6.4,77,47,24,30.43,30.24,7,1,13,0.00
2013-4-4,58.8,44.5,31.9,34.1,25.9,18.6,61,49,34,30.25,29.94,11,3,20,0.00
2013-4-5,49.4,40.4,30.2,28.1,23.4,18.1,74,52,30,30.23,30.05,8,2,14,0.03
2013-4-6,61.7,47.7,34.7,48.9,33.6,18.3,86,59,40,30.11,29.54,12,3,23,0.02
2013-4-7,55.7,45.8,37.7,43.5,34.3,30.2,79,65,45,29.96,29.59,9,3,19,0.00
2013-4-8,60.9,47.0,38.2,49.9,40.9,30.7,95,80,66,29.99,29.60,8,2,14,0.51
2013-4-9,43.9,39.5,36.8,41.3,38.1,35.2,96,95,91,30.01,29.85,10,2,20,1.55
2013-4-10,37.7,35.1,32.4,36.1,33.5,30.5,95,94,91,30.07,29.89,10,2,22,1.56
2013-4-11,39.9,37.3,35.4,38.5,35.9,33.8,96,95,93,29.90,29.56,8,2,19,0.61
2013-4-12,41.9,37.2,34.9,36.8,32.5,26.4,97,84,69,29.79,29.51,9,2,17,0.03
2013-4-13,40.7,36.1,32.3,28.1,25.8,23.2,80,66,54,29.99,29.77,9,3,23,0.00
2013-4-14,52.2,40.7,32.0,44.4,33.9,25.2,92,77,61,29.99,29.54,9,2,19,0.13
2013-4-15,62.0,48.7,41.3,50.2,41.2,33.1,97,78,37,29.97,29.58,16,3,28,0.92
2013-4-16,54.3,44.2,34.5,34.4,31.1,27.6,77,61,39,30.28,29.97,9,2,17,0.00
2013-4-17,44.7,41.2,38.1,41.9,36.4,30.3,96,84,63,30.30,29.82,7,1,17,1.09
2013-4-18,59.2,46.1,37.5,58.9,44.1,30.9,99,93,77,29.88,29.32,13,3,28,0.88
2013-4-19,41.9,36.1,31.8,31.3,26.1,19.9,80,67,52,29.92,29.37,14,6,32,0.00
2013-4-20,47.0,36.3,27.9,20.9,17.4,12.7,73,48,26,30.37,29.92,9,2,23,0.00
2013-4-21,54.3,43.1,32.1,34.9,27.7,20.3,70,55,38,30.47,30.23,10,3,23,0.00
2013-4-22,68.4,55.3,44.0,41.3,36.4,32.5,67,50,32,30.25,29.99,9,3,17,0.00
2013-4-23,57.5,44.5,38.7,46.1,34.5,25.7,82,68,51,30.01,29.88,10,4,20,0.00
2013-4-24,55.7,44.4,34.7,28.6,24.0,17.3,66,47,26,30.04,29.97,10,3,22,0.00
2013-4-25,53.7,44.9,38.7,34.1,29.9,25.4,78,57,35,30.27,29.97,10,3,20,0.00
2013-4-26,71.3,55.5,39.5,45.4,36.0,23.8,66,49,36,30.26,30.12,13,4,23,0.00
2013-4-27,66.9,56.6,46.7,48.2,44.3,41.8,86,65,47,30.22,30.01,8,2,19,0.00
2013-4-28,72.8,58.3,42.1,48.0,42.9,38.4,88,60,34,30.01,29.79,6,1,12,0.00
2013-4-29,72.3,62.6,54.8,56.0,51.0,46.8,77,66,48,29.86,29.71,10,3,19,0.02
2013-4-30,88.1,73.9,60.0,59.3,52.4,44.1,91,52,23,29.89,29.66,13,4,23,0.04
2013-5-1,80.9,66.4,51.4,54.9,48.2,40.3,66,53,38,30.22,29.89,11,3,25,0.00
2013-5-2,56.3,46.2,37.4,40.3,36.1,32.6,86,69,54,30.31,30.20,11,5,25,0.05
2013-5-3,47.9,41.0,35.5,46.7,39.3,32.6,97,93,83,30.22,29.99,9,2,19,0.99
2013-5-4,72.0,56.7,47.1,56.6,49.2,45.4,96,78,44,30.06,29.97,6,1,11,0.31
2013-5-5,74.8,60.6,47.1,49.7,45.7,41.5,90,61,33,30.07,29.99,6,1,13,0.00
2013-5-6,76.7,62.0,46.5,47.6,43.4,38.0,84,54,29,30.09,30.00,7,1,14,0.00
2013-5-7,79.7,67.1,55.8,48.2,42.4,33.7,71,44,20,30.07,29.99,6,1,11,0.00
2013-5-8,81.3,67.2,50.6,50.9,45.9,39.7,82,50,24,30.04,29.96,5,0,10,0.00
2013-5-9,65.2,60.0,48.5,60.4,54.2,47.5,97,82,58,29.97,29.86,5,0,13,1.30
2013-5-10,54.1,46.9,42.0,47.8,43.2,39.4,97,87,76,30.00,29.88,10,3,22,0.63
2013-5-11,55.2,49.1,42.2,48.3,35.2,22.3,93,62,30,30.05,29.81,14,4,30,0.00
2013-5-12,57.0,46.3,37.2,28.7,24.8,20.3,61,44,25,30.12,30.05,10,3,21,0.00
2013-5-13,66.6,52.8,33.6,36.2,30.3,23.8,84,47,21,30.17,29.89,7,1,12,0.00
2013-5-14,90.2,73.5,55.3,61.1,47.7,35.8,60,42,24,29.90,29.58,10,3,22,0.02
2013-5-15,80.0,71.6,59.8,58.2,45.0,38.1,58,40,24,29.88,29.58,7,2,14,0.00
2013-5-16,85.8,69.7,54.1,51.2,44.1,0.0,74,43,24,31.23,26.77,5,1,14,0.00
2013-5-17,66.8,58.9,49.4,53.6,46.1,32.4,94,64,37,30.10,29.97,6,1,16,0.20
2013-5-18,81.6,67.9,55.2,63.6,56.0,45.9,76,67,49,30.06,29.92,8,1,13,0.00
2013-5-19,87.6,72.5,60.9,66.8,61.1,54.2,90,69,42,29.95,29.65,14,2,31,0.09
2013-5-20,82.8,72.6,62.1,62.9,60.4,55.2,97,68,46,29.80,29.60,9,2,22,0.29
2013-5-21,79.2,70.0,61.0,61.0,57.7,55.3,83,66,47,29.71,29.61,8,2,17,0.00
2013-5-22,71.8,62.9,55.9,60.9,57.6,53.7,97,84,65,29.79,29.62,6,1,13,0.18
2013-5-23,63.7,54.4,48.1,55.0,44.7,36.6,96,72,41,30.30,29.79,11,3,19,0.09
2013-5-24,65.4,52.6,38.1,43.7,37.9,33.3,87,60,34,30.45,30.29,7,1,11,0.00
2013-5-25,60.5,53.7,46.7,42.6,39.5,35.2,82,59,45,30.39,30.29,5,1,14,0.03
2013-5-26,69.0,55.7,44.8,52.7,43.0,34.7,82,64,40,30.31,30.15,5,1,13,0.01
2013-5-27,56.6,54.3,52.2,53.9,50.0,40.9,96,87,59,30.15,29.88,5,1,16,0.03
2013-5-28,72.8,62.5,52.4,67.0,59.6,51.4,98,91,73,29.88,29.71,45,0,199,0.24
2013-5-29,83.3,72.2,64.0,67.2,64.2,59.6,98,78,56,29.91,29.77,8,2,21,0.46
2013-5-30,82.6,71.6,62.2,72.6,65.3,60.8,99,82,58,29.89,29.70,11,3,25,0.63
2013-5-31,77.4,68.9,62.9,65.4,62.1,59.8,93,80,58,29.79,29.67,10,2,17,0.01
2013-6-1,78.7,70.2,63.6,65.6,61.3,54.8,96,75,47,29.73,29.63,9,2,17,0.00
2013-6-2,63.9,55.5,48.1,56.4,44.9,38.9,86,68,50,30.03,29.71,9,2,22,0.00
2013-6-3,71.3,58.0,43.7,46.7,42.7,37.2,90,61,31,30.11,30.01,7,1,11,0.00
2013-6-4,71.0,62.3,53.3,52.7,47.7,41.7,88,60,42,30.18,30.07,5,1,14,0.14
2013-6-5,67.6,57.6,50.7,60.7,53.6,47.7,94,87,66,30.14,29.94,4,0,9,0.14
2013-6-6,59.9,56.7,53.2,55.9,53.0,49.3,96,88,79,29.97,29.92,4,0,9,0.34
2013-6-7,72.2,60.4,54.2,54.3,50.3,47.2,85,71,48,30.01,29.92,5,1,10,0.01
2013-6-8,73.5,63.4,52.8,52.7,48.1,42.6,87,60,39,30.01,29.93,5,0,9,0.00
2013-6-9,79.9,67.9,57.4,64.2,56.0,47.3,95,67,49,30.01,29.80,9,1,20,0.43
2013-6-10,80.9,70.6,60.6,65.3,62.1,59.1,97,76,52,29.88,29.77,6,1,11,0.00
2013-6-11,84.1,73.2,60.7,66.2,62.3,57.6,92,70,50,29.92,29.79,5,1,12,0.00
2013-6-12,78.8,70.9,62.1,68.5,65.3,61.1,98,83,68,29.92,29.63,7,1,19,1.23
2013-6-13,78.6,68.4,58.4,61.0,57.0,52.9,96,69,43,30.07,29.75,8,2,18,0.00
2013-6-14,78.1,67.6,54.2,58.2,55.2,50.6,91,66,46,30.16,30.00,6,1,12,0.00
2013-6-15,82.3,70.7,59.0,68.4,62.7,52.6,96,77,57,30.07,29.82,6,1,12,0.41
2013-6-16,85.3,75.3,65.6,68.8,59.3,48.8,96,63,29,29.93,29.86,7,2,14,0.00
2013-6-17,87.4,74.8,64.6,60.8,55.8,51.6,73,53,33,29.98,29.88,9,1,16,0.00
2013-6-18,73.5,64.8,57.1,56.7,52.0,46.0,78,64,45,30.10,29.97,6,1,14,0.00
2013-6-19,80.3,66.9,50.2,56.2,50.2,45.4,86,58,35,30.16,30.06,6,1,9,0.00
2013-6-20,87.8,74.8,59.3,63.6,55.2,46.2,68,52,31,30.15,30.04,7,1,17,0.00
2013-6-21,78.3,71.4,66.0,69.1,64.4,60.1,97,79,62,30.12,29.84,8,1,19,0.96
2013-6-22,81.9,71.5,66.6,72.2,67.8,65.2,98,89,65,30.12,29.92,10,1,19,1.25
2013-6-23,85.3,74.0,64.1,72.6,67.4,63.1,98,81,62,30.09,29.86,7,1,16,0.44
2013-6-24,81.8,73.4,69.6,68.8,66.2,63.1,91,79,61,30.03,29.84,6,1,14,0.00
2013-6-25,82.6,72.9,65.6,73.4,69.1,64.7,98,89,70,29.97,29.80,5,1,14,2.33
2013-6-26,83.2,74.7,66.1,72.7,69.1,65.2,99,84,60,29.85,29.71,7,1,14,2.01
2013-6-27,88.8,79.2,70.6,70.9,66.2,57.4,95,67,38,29.82,29.71,10,2,19,0.00
2013-6-28,77.7,70.3,65.6,65.8,60.9,56.8,95,73,53,29.77,29.66,8,2,19,0.28
2013-6-29,73.5,66.7,63.2,65.1,61.7,57.4,98,85,61,29.86,29.64,7,2,17,0.75
2013-6-30,78.3,68.7,59.1,59.3,53.2,47.2,78,59,41,30.07,29.89,8,2,17,0.00
2013-7-1,79.3,68.2,56.3,56.9,53.2,48.3,87,62,35,30.14,30.06,6,1,14,0.00
2013-7-2,75.7,66.1,57.1,56.2,51.6,40.8,88,62,31,30.14,30.07,7,1,14,0.00
2013-7-3,72.1,64.1,55.9,61.6,56.2,50.1,87,76,65,30.10,30.03,5,0,11,0.00
2013-7-4,82.6,72.2,60.6,62.5,59.2,54.7,92,66,41,30.10,30.01,6,1,12,0.00
2013-7-5,85.9,75.8,65.7,66.8,62.4,59.3,81,65,47,30.07,30.00,7,1,17,0.00
2013-7-6,86.1,76.5,66.5,67.0,63.4,59.8,79,65,49,30.05,29.96,5,1,11,0.00
2013-7-7,89.4,79.2,69.5,71.6,68.0,64.7,85,70,50,29.99,29.92,4,0,9,0.00
2013-7-8,88.3,79.6,71.3,75.7,71.8,67.5,97,78,60,30.00,29.92,6,0,13,0.41
2013-7-9,84.8,77.5,72.1,74.8,72.5,68.6,97,85,67,30.01,29.84,6,1,15,0.26
2013-7-10,80.0,74.3,64.8,73.7,62.0,54.6,91,67,45,30.04,29.86,10,2,19,0.00
2013-7-11,81.3,70.5,58.5,60.7,56.8,53.1,90,65,40,30.15,30.04,6,0,11,0.00
2013-7-12,82.7,71.8,59.2,59.2,54.9,49.3,81,58,35,30.18,30.08,6,0,12,0.00
2013-7-13,84.3,73.6,62.7,65.1,59.2,54.6,76,62,44,30.18,30.09,7,1,13,0.00
2013-7-14,87.9,76.6,63.6,68.8,64.7,58.9,86,68,48,30.24,30.16,6,0,14,0.00
2013-7-15,90.1,80.1,69.0,74.3,70.1,65.4,90,73,53,30.29,30.21,4,0,10,0.00
2013-7-16,91.6,83.4,74.6,76.0,73.1,71.0,92,72,54,30.30,30.24,5,0,11,0.00
2013-7-17,94.3,83.7,77.4,80.8,74.1,69.5,92,75,48,30.31,30.18,6,1,13,0.17
2013-7-18,93.6,84.5,75.6,75.0,72.3,69.6,92,69,48,30.19,29.92,6,1,14,0.00
2013-7-19,91.2,82.9,75.1,74.5,69.1,61.0,73,64,48,29.92,29.76,8,2,19,0.01
2013-7-20,85.5,75.8,65.9,66.6,62.1,58.1,79,64,45,29.99,29.86,6,1,14,0.00
2013-7-21,84.6,69.1,63.4,69.0,61.8,56.8,96,79,59,29.99,29.90,8,1,20,0.83
2013-7-22,85.8,73.2,63.8,74.0,65.7,60.1,95,79,56,29.90,29.71,10,1,20,0.43
2013-7-23,76.0,69.3,60.3,64.9,56.9,52.5,88,66,48,30.01,29.74,9,2,19,0.00
2013-7-24,73.6,65.0,55.4,56.2,52.6,48.5,89,66,44,30.10,30.01,5,0,11,0.00
2013-7-25,81.0,68.9,59.0,65.9,58.9,52.5,90,71,52,30.10,29.97,6,1,17,0.20
2013-7-26,76.8,68.4,63.6,68.5,61.3,53.1,95,79,47,29.98,29.85,8,1,20,0.14
2013-7-27,63.6,57.3,53.9,55.6,47.6,42.3,82,71,55,29.98,29.88,8,2,19,0.00
2013-7-28,68.8,59.8,52.3,53.2,50.7,46.5,92,73,55,30.04,29.86,9,2,17,0.10
2013-7-29,75.2,65.4,56.0,59.7,55.1,50.0,85,70,55,30.18,30.03,5,1,12,0.00
2013-7-30,73.0,65.9,58.3,62.9,59.5,55.0,90,80,66,30.19,30.09,5,0,10,0.00
2013-7-31,81.2,69.9,64.0,67.3,63.0,60.1,93,80,57,30.10,29.98,7,1,15,0.09
2013-8-1,78.1,69.7,62.6,62.2,57.5,51.5,91,67,42,30.03,29.92,8,1,17,0.00
2013-8-2,82.1,71.3,63.5,67.3,59.8,54.3,94,69,42,29.99,29.85,8,1,14,0.15
2013-8-3,78.0,67.7,55.9,56.7,53.0,47.5,88,62,37,30.16,29.99,7,1,16,0.00
2013-8-4,76.8,66.4,54.5,59.3,54.5,48.1,89,67,41,30.24,30.12,6,0,11,0.00
2013-8-5,73.8,66.1,60.1,64.7,59.5,54.4,90,79,65,30.12,29.87,7,1,17,0.04
2013-8-6,84.1,74.9,66.2,69.8,66.8,63.0,94,77,58,29.90,29.80,6,1,11,0.00
2013-8-7,81.0,74.1,65.0,71.1,64.9,59.2,91,74,56,29.99,29.77,8,1,17,0.00
2013-8-8,78.1,70.3,62.6,63.0,60.3,56.7,89,72,55,30.07,29.99,4,0,11,0.00
2013-8-9,80.2,70.5,62.7,64.9,58.5,53.3,82,66,49,30.08,29.99,6,1,14,0.00
2013-8-10,75.8,66.8,56.6,58.2,54.9,52.4,87,67,47,30.18,30.08,5,0,11,0.00
2013-8-11,76.3,67.1,57.9,67.4,60.8,53.6,94,81,64,30.15,30.04,6,0,14,0.29
2013-8-12,80.0,71.7,64.6,68.4,64.0,57.3,96,78,52,30.05,29.92,6,1,14,0.10
2013-8-13,71.3,64.5,56.4,57.7,50.4,45.9,81,61,44,30.18,30.00,6,1,19,0.00
2013-8-14,73.2,62.6,50.2,54.9,51.0,46.4,90,68,45,30.24,30.13,5,0,9,0.00
2013-8-15,78.2,67.7,59.3,56.7,53.5,49.1,79,62,37,30.17,30.10,5,0,10,0.00
2013-8-16,81.0,69.2,57.3,58.7,54.5,49.0,86,62,34,30.20,30.14,6,1,11,0.00
2013-8-17,81.1,69.2,56.5,59.0,55.1,51.1,89,64,38,30.26,30.17,5,0,11,0.00
2013-8-18,81.6,69.8,56.8,61.2,55.7,50.4,87,63,35,30.23,30.10,4,0,11,0.00
2013-8-19,82.4,71.7,61.8,64.9,59.7,55.2,87,67,46,30.12,30.03,5,0,12,0.00
2013-8-20,87.6,76.2,66.2,67.1,63.4,60.6,85,67,44,30.09,30.01,7,1,16,0.00
2013-8-21,89.8,80.0,71.2,69.9,66.9,63.6,79,65,50,30.04,29.93,8,2,20,0.00
2013-8-22,78.6,72.5,67.7,70.9,68.2,65.0,96,87,72,30.16,29.99,11,0,25,0.98
2013-8-23,81.7,70.7,59.7,66.5,59.1,55.0,94,69,45,30.20,30.13,5,0,14,0.00
2013-8-24,83.8,72.5,59.1,67.6,61.5,52.8,81,69,57,30.26,30.16,7,1,15,0.00
2013-8-25,89.3,79.4,70.1,71.4,66.3,61.6,79,65,49,30.20,30.10,8,2,17,0.00
2013-8-26,90.3,80.2,73.0,75.1,69.6,64.0,79,70,57,30.15,29.97,6,1,13,0.00
2013-8-27,94.5,84.3,75.7,74.5,71.6,68.2,79,67,50,29.99,29.82,8,2,14,0.00
2013-8-28,83.3,77.9,73.0,73.8,70.5,68.2,93,79,63,30.07,29.86,4,1,11,0.00
2013-8-29,86.7,76.9,65.8,71.0,66.7,62.4,94,72,50,30.10,29.97,6,1,14,0.00
2013-8-30,94.5,81.0,72.2,76.7,71.3,65.7,89,74,54,29.98,29.78,7,1,14,0.00
2013-8-31,80.3,73.0,67.8,68.2,64.5,61.1,87,75,64,29.90,29.80,4,0,11,0.03
2013-9-1,83.5,73.4,66.0,71.1,64.7,57.9,95,76,46,29.87,29.74,8,1,16,0.00
2013-9-2,70.5,65.5,58.6,59.2,56.0,51.6,86,72,56,30.03,29.86,7,1,14,0.00
2013-9-3,75.5,63.0,50.9,57.8,52.7,47.1,90,71,45,30.12,30.02,5,0,12,0.00
2013-9-4,83.0,70.2,56.7,65.2,59.2,52.3,87,70,49,30.13,30.05,6,1,14,0.00
2013-9-5,75.5,68.9,60.2,65.0,58.7,50.8,87,71,58,30.27,30.13,5,1,12,0.00
2013-9-6,86.7,72.2,58.1,65.6,58.4,48.0,75,63,48,30.23,29.99,6,1,16,0.00
2013-9-7,90.2,78.5,69.1,71.9,66.2,60.8,85,67,50,30.00,29.88,5,1,13,0.00
2013-9-8,74.3,69.2,64.3,67.9,63.0,58.1,87,81,77,30.08,29.97,5,1,14,0.00
2013-9-9,91.9,78.7,67.3,75.5,68.7,62.1,91,73,54,29.99,29.78,6,1,15,0.00
2013-9-10,94.7,83.6,72.0,71.7,63.7,58.2,90,54,31,29.99,29.84,9,2,28,0.03
2013-9-11,81.8,73.6,67.3,70.1,66.4,62.7,95,79,58,30.12,29.97,6,1,14,0.15
2013-9-12,74.4,67.1,59.7,63.2,54.6,47.3,89,66,46,30.16,29.99,9,2,22,0.00
2013-9-13,65.0,56.9,49.9,47.7,42.7,37.5,81,60,37,30.25,30.15,6,1,13,0.00
2013-9-14,71.3,59.9,46.8,48.9,45.0,42.1,85,61,38,30.18,29.99,5,1,11,0.00
2013-9-15,62.4,57.6,54.3,57.3,54.0,45.0,95,88,54,30.24,29.97,5,0,15,0.66
2013-9-16,64.1,55.1,46.5,52.0,45.1,40.0,84,70,51,30.41,30.24,5,1,12,0.00
2013-9-17,69.4,57.8,44.3,57.3,49.7,40.3,90,76,55,30.35,30.09,6,1,14,0.07
2013-9-18,75.0,67.9,59.6,66.8,60.7,53.8,88,78,67,30.09,29.88,7,1,15,0.00
2013-9-19,86.6,72.7,67.7,73.0,68.4,64.5,97,88,59,29.90,29.72,10,1,22,1.59
2013-9-20,71.2,65.6,58.5,67.1,59.6,51.8,97,82,62,29.86,29.74,8,2,17,0.00
2013-9-21,61.1,55.5,48.6,53.8,47.8,44.7,88,76,59,29.97,29.85,8,1,17,0.00
2013-9-22,63.6,53.6,44.3,49.0,45.1,40.9,89,74,53,30.09,29.97,5,0,11,0.00
2013-9-23,68.0,55.8,44.0,53.4,47.6,40.3,92,75,56,30.12,30.03,5,0,11,0.00
2013-9-24,71.0,58.5,46.6,54.5,49.1,43.0,91,73,48,30.05,29.95,5,0,15,0.00
2013-9-25,70.4,59.4,48.1,55.7,50.9,44.1,92,75,53,30.01,29.94,4,0,11,0.00
2013-9-26,75.3,60.7,47.3,58.0,50.6,43.6,95,72,43,30.09,30.00,7,0,11,0.00
2013-9-27,79.6,65.1,51.6,57.5,51.8,48.1,91,66,35,30.14,30.03,6,1,16,0.00
2013-9-28,80.8,64.7,54.9,66.9,55.7,48.3,96,74,51,30.04,29.84,10,2,28,0.00
2013-9-29,69.2,57.6,47.9,54.2,47.7,39.0,94,73,38,30.08,29.99,3,0,6,0.25
2013-9-30,72.3,61.3,48.8,50.1,45.8,43.1,83,59,36,30.00,29.82,7,1,17,0.00
2013-10-1,79.0,67.6,58.8,61.5,57.1,49.1,88,70,51,29.99,29.84,9,1,19,0.00
2013-10-2,74.7,62.6,50.1,54.8,47.4,38.5,89,61,28,30.13,29.98,5,0,9,0.00
2013-10-3,75.8,66.8,57.8,67.1,60.0,43.8,92,79,53,29.98,29.83,7,1,14,0.00
2013-10-4,68.8,66.3,62.6,67.5,64.8,61.8,97,95,91,30.01,29.87,3,0,9,0.09
2013-10-5,73.2,66.4,57.5,72.0,65.0,46.8,99,95,68,29.95,29.75,6,0,15,0.22
2013-10-6,59.5,51.8,45.5,47.0,42.2,38.5,87,71,49,29.78,29.68,6,1,11,0.14
2013-10-7,66.3,54.3,46.4,49.1,44.4,41.7,88,71,43,30.08,29.72,8,1,17,0.03
2013-10-8,74.5,59.7,45.2,52.7,45.7,41.3,90,63,34,30.15,30.07,6,1,14,0.00
2013-10-9,72.1,60.0,50.7,52.0,46.7,40.5,85,64,33,30.22,30.11,5,1,14,0.00
2013-10-10,72.9,58.4,45.2,55.2,48.0,41.1,91,71,41,30.17,30.03,5,0,12,0.00
2013-10-11,73.7,62.1,50.2,59.5,53.2,46.6,91,74,55,30.05,29.90,8,1,22,0.00
2013-10-12,69.4,61.5,48.1,59.2,49.7,39.5,89,67,42,30.16,29.89,8,2,17,0.04
2013-10-13,60.2,50.6,41.4,42.2,37.5,32.8,84,63,37,30.41,30.16,7,1,16,0.00
2013-10-14,61.7,49.3,36.7,44.7,39.9,32.5,90,72,51,30.42,30.11,7,1,16,0.00
2013-10-15,60.9,53.7,49.4,58.6,48.4,42.3,96,83,69,30.11,29.73,7,1,14,0.00
2013-10-16,54.2,50.8,48.4,48.0,46.1,42.6,92,84,75,29.94,29.77,6,1,13,0.29
2013-10-17,54.2,47.9,42.8,46.1,43.0,38.1,92,84,57,29.92,29.81,6,0,11,0.09
2013-10-18,48.9,45.4,42.2,41.8,38.1,35.8,83,76,65,29.94,29.79,9,2,17,0.07
2013-10-19,52.7,43.3,36.1,40.9,35.5,31.1,83,75,45,29.91,29.71,11,1,18,0.00
2013-10-20,49.4,43.5,34.5,46.4,38.9,30.9,92,84,68,29.84,29.69,5,0,14,0.00
2013-10-21,47.7,40.1,31.9,42.9,28.8,21.8,85,64,47,29.94,29.74,9,2,19,0.11
2013-10-22,45.7,37.6,29.1,31.1,26.6,22.3,78,65,52,29.97,29.90,5,1,9,0.00
2013-10-23,44.0,36.9,30.8,29.8,26.7,21.9,81,67,44,30.01,29.94,10,1,17,0.00
2013-10-24,44.1,37.7,32.4,28.1,24.9,23.1,74,60,45,30.29,30.01,10,2,19,0.01
2013-10-25,51.9,42.5,31.8,30.1,26.3,23.4,74,54,39,30.34,29.90,10,2,22,0.00
2013-10-26,50.2,45.6,38.5,35.7,29.7,25.8,70,54,42,30.07,29.78,10,3,25,0.00
2013-10-27,54.7,42.7,32.5,31.6,29.0,25.9,77,60,36,30.06,29.88,8,1,16,0.00
2013-10-28,44.7,41.3,35.9,33.0,30.9,27.6,79,67,59,30.40,30.03,7,1,17,0.00
2013-10-29,52.1,45.1,38.3,41.4,36.0,28.0,81,71,62,30.39,30.12,5,0,14,0.00
2013-10-30,56.7,51.1,45.3,55.4,48.6,40.2,97,91,81,30.12,29.73,6,0,19,0.00
2013-10-31,62.5,55.7,43.7,61.7,54.1,38.8,98,94,83,29.73,29.28,9,2,19,0.25
2013-11-1,47.8,44.5,40.0,43.2,39.5,36.0,87,83,77,29.75,29.34,8,2,22,0.00
2013-11-2,46.9,40.9,33.8,38.3,34.7,29.6,90,79,62,30.14,29.74,6,1,12,0.04
2013-11-3,50.6,40.3,29.8,38.0,31.7,26.0,91,73,48,30.27,30.14,8,1,16,0.01
2013-11-4,53.6,48.6,41.9,45.6,38.8,34.6,84,69,58,30.18,30.01,10,2,25,0.00
2013-11-5,55.7,51.5,48.8,51.9,47.5,43.9,96,86,71,30.25,29.84,8,1,19,0.00
2013-11-6,55.7,43.3,34.0,54.7,37.4,23.0,97,81,55,30.16,29.69,10,2,22,0.64
2013-11-7,42.0,36.2,31.2,30.8,27.1,23.0,78,69,59,30.23,30.16,7,1,14,0.18
2013-11-8,47.4,38.2,27.4,33.9,28.9,23.8,88,70,55,30.27,29.77,10,2,22,0.00
2013-11-9,54.1,47.1,39.0,39.8,34.1,24.0,73,61,48,30.10,29.74,13,5,32,0.00
2013-11-10,49.2,42.7,36.9,30.9,28.6,25.4,66,58,45,30.32,30.10,9,3,21,0.00
2013-11-11,45.7,33.7,23.0,33.6,24.7,14.3,93,70,58,30.55,30.04,11,3,23,0.00
2013-11-12,30.5,24.4,18.6,15.9,14.1,9.8,79,65,44,30.70,30.53,8,2,15,0.09
2013-11-13,42.2,31.4,19.8,18.6,15.5,13.3,77,54,33,30.53,30.03,12,5,25,0.00
2013-11-14,48.3,40.6,33.2,33.6,24.9,17.5,75,54,46,30.04,29.86,10,3,20,0.00
2013-11-15,55.7,44.7,34.2,38.3,32.2,27.3,78,62,50,29.92,29.85,6,1,13,0.00
2013-11-16,57.9,49.0,38.9,54.3,45.9,32.7,96,89,76,29.86,29.46,11,4,25,0.00
2013-11-17,58.2,50.0,39.1,55.0,46.4,31.0,98,87,72,29.69,29.17,13,3,30,0.22
2013-11-18,39.5,34.7,27.7,31.1,24.6,21.2,77,67,54,30.25,29.68,12,4,25,0.76
2013-11-19,40.6,32.1,22.6,27.4,23.3,19.5,88,71,51,30.34,30.20,7,1,14,0.00
2013-11-20,41.4,36.6,33.5,35.1,29.3,26.1,92,75,58,30.21,30.06,9,2,20,0.00
2013-11-21,43.9,40.5,37.0,38.4,36.5,33.8,92,86,79,30.25,30.07,7,1,14,0.10
2013-11-22,38.4,31.5,25.3,34.0,23.2,14.5,93,72,49,30.48,30.24,10,3,18,0.06
2013-11-23,25.6,18.5,12.3,17.0,8.4,3.3,78,64,51,30.70,30.40,12,4,25,0.00
2013-11-24,27.4,19.4,10.9,9.5,6.4,1.6,82,59,34,30.67,30.20,13,3,22,0.00
2013-11-25,31.9,27.3,22.2,25.6,20.2,9.1,94,75,50,30.20,29.99,11,5,29,0.06
2013-11-26,33.5,26.1,14.3,25.8,16.7,6.0,87,67,55,30.20,29.99,11,3,22,0.04
2013-11-27,26.5,19.6,11.2,13.7,10.6,5.7,87,68,51,30.26,30.16,9,2,22,0.02
2013-11-28,30.0,25.8,22.0,17.1,14.9,12.8,70,63,55,30.48,30.11,7,2,14,0.00
2013-11-29,31.1,24.8,13.9,20.8,16.5,11.4,92,71,55,30.59,30.30,6,1,14,0.00
2013-11-30,43.0,34.1,27.8,30.4,25.8,20.6,79,72,59,30.30,30.01,8,2,16,0.00
2013-12-1,39.9,34.5,30.5,29.4,26.1,23.6,82,71,58,30.14,29.95,5,0,11,0.00
2013-12-2,39.9,32.9,24.0,32.6,27.8,21.3,93,82,67,29.96,29.71,8,1,16,0.00
2013-12-3,40.6,37.7,34.3,39.7,36.5,32.5,97,96,93,29.73,29.64,6,0,13,0.14
2013-12-4,49.6,41.1,34.1,48.9,39.5,27.9,98,94,78,29.73,29.44,15,2,25,0.10
2013-12-5,34.1,22.0,14.9,28.2,14.3,9.3,81,72,59,30.26,29.62,11,4,25,0.07
2013-12-6,17.2,12.1,8.5,9.2,5.8,4.0,86,76,61,30.53,30.22,7,2,15,0.00
2013-12-7,16.1,9.5,2.9,4.7,2.8,0.1,92,75,52,30.66,30.52,6,1,13,0.00
2013-12-8,23.2,17.1,11.6,20.9,12.0,2.4,93,81,64,30.57,29.92,4,0,12,0.00
2013-12-9,18.8,9.9,-1.7,16.9,6.4,-3.5,95,86,74,30.16,29.90,15,3,25,0.29
2013-12-10,20.5,9.9,-3.4,12.2,4.7,-4.6,95,80,61,30.22,29.88,11,4,28,0.00
2013-12-11,16.3,8.2,-1.3,13.6,2.6,-5.3,92,78,61,30.48,30.20,10,2,20,0.02
2013-12-12,18.6,10.6,-2.0,12.9,4.9,-5.0,89,78,65,30.45,30.13,8,3,20,0.00
2013-12-13,25.9,19.7,13.6,18.9,14.7,10.5,89,81,68,30.18,30.10,5,1,16,0.00
2013-12-14,24.1,21.7,19.3,20.4,18.4,15.4,92,87,82,30.15,29.90,8,2,17,0.00
2013-12-15,20.3,12.1,6.0,15.5,5.1,-2.2,89,73,58,30.10,29.90,7,2,20,0.05
2013-12-16,16.5,9.8,0.8,15.2,5.6,-3.2,95,83,62,30.11,29.97,6,1,14,0.00
2013-12-17,35.4,25.7,15.2,24.6,18.8,12.4,96,76,54,30.05,29.88,10,4,28,0.19
2013-12-18,34.6,25.0,13.9,25.9,16.2,9.4,85,70,49,30.08,29.73,12,3,22,0.00
2013-12-19,33.9,28.0,23.6,26.7,23.3,19.4,95,83,70,29.96,29.75,8,1,19,0.00
2013-12-20,25.3,23.1,21.0,23.5,21.6,20.1,98,94,90,29.88,29.78,8,2,17,0.06
2013-12-21,27.7,25.6,23.3,26.1,24.4,22.5,98,95,92,29.87,29.71,6,1,14,0.01
2013-12-22,27.0,24.9,20.6,25.4,23.3,18.8,98,93,88,30.10,29.69,9,2,17,0.00
2013-12-23,24.4,11.1,0.2,22.5,8.8,-1.4,95,90,81,30.40,30.09,7,2,14,0.22
2013-12-24,13.0,4.6,-5.7,10.6,2.4,-6.5,98,91,72,30.49,30.23,6,1,13,0.00
2013-12-25,24.6,20.6,12.1,21.0,17.8,10.6,96,89,83,30.23,30.04,7,2,17,0.08
2013-12-26,29.5,22.8,12.8,24.0,18.2,10.5,91,83,74,30.19,30.06,7,1,13,0.05
2013-12-27,37.7,28.6,15.8,29.1,23.2,14.5,96,81,70,30.22,29.98,11,2,20,0.01
2013-12-28,42.7,35.9,26.6,31.8,28.5,23.7,89,75,64,30.02,29.71,10,3,22,0.00
2013-12-29,39.1,19.7,-1.5,30.4,14.6,-5.6,92,80,68,30.22,29.70,12,4,23,0.00
2013-12-30,6.2,0.2,-7.1,1.8,-4.7,-9.8,92,80,56,30.29,30.15,5,1,11,0.00
2013-12-31,10.5,5.2,-1.1,6.9,2.7,-2.2,97,89,76,30.31,30.14,5,1,12,0.05
2014-1-1,10.1,5.4,1.1,5.1,1.2,-3.4,93,82,77,30.34,30.26,10,3,17,0.11
2014-1-2,11.8,6.9,-1.9,6.0,2.6,-2.9,96,82,71,30.40,30.22,10,3,17,0.01